[[{"header":{"parameterUnit":"m.s-1","parameterCategory":1,"la1":30.2991,"la2":30.254,"lo1":-89.0895,"lo2":-89.0444,"dy":0.0017,"dx":0.0017,"nx":28,"ny":28,"refTime":"2026-02-16T03:00:00:Z","depth":0,"parameterNumber":2,"parameterNumberName":"U-component_of_WINDS"},"data":[0,0,0,0,0,0,0,0,0,0,0,0,0,0,0,0,0,0,0,0,0,0,0,0,0,0,0,0,0,0,0,0,0,0,0,0,0,0,0,0,0,0,0,0,0,0,0,0,0,0,0,0,0,0,0,0,0,0,0.1564,0.1565,0,0.1623,0.1624,0.1624,0.1618,0.1617,0.1616,0.1615,0.1676,0.1678,0.1681,0,0,0,0,0,0,0,0,0,0,0,0,0,0.1447,0.1449,0.1564,0.1565,0.1566,0.1623,0.1624,0.1625,0.1618,0.1617,0.1616,0.1615,0.1675,0.1678,0.1681,0,0,0,0,0,0,0,0,0,0,0,0,0,0.1501,0.145,0.1564,0.1569,0.1571,0.1623,0.1624,0.1625,0.1618,0.1617,0.1615,0.1614,0.1674,0.1678,0.1682,0.1733,0,0,0.1693,0.1695,0,0,0,0,0,0,0,0,0.1498,0.1505,0.1568,0.1569,0.157,0.1612,0.1605,0.1661,0.1619,0.16,0.1615,0.1613,0.1656,0.1661,0.1675,0.1736,0.1738,0.1693,0.1696,0.1697,0.1698,0,0,0,0,0,0,0,0.1494,0.1503,0.1588,0.1569,0.157,0.1569,0.1575,0.1615,0.1635,0.1602,0.1601,0.1608,0.1656,0.1671,0.1676,0.1739,0.1693,0.1697,0.1699,0.17,0.1842,0.1844,0,0,0,0,0,0,0.1489,0.15,0.1586,0.1589,0.153,0.1572,0.1579,0.16,0.1635,0.1639,0.1609,0.1608,0.1666,0.1672,0.1679,0.1739,0.1697,0.1701,0.1703,0.1841,0.1843,0.1844,0,0,0,0,0,0,0.1487,0.1497,0.1583,0.1544,0.1555,0.1576,0.1599,0.1602,0.1617,0.1641,0.1644,0.1621,0.1665,0.1673,0.1719,0.1741,0.1702,0.1706,0.1839,0.1841,0.1844,0.1862,0,0,0,0,0,0,0.1483,0.1496,0.1516,0.1545,0.1557,0.1623,0.1601,0.1604,0.1623,0.1622,0.1653,0.1656,0.1664,0.1713,0.1722,0.1746,0.1709,0.1837,0.184,0.1843,0.1859,0.1865,0.1869,0,0,0,0,0,0.1479,0.1519,0.1517,0.1527,0.1582,0.1624,0.1631,0.1639,0.1625,0.1645,0.166,0.1655,0.1738,0.1718,0.1728,0.1753,0.1836,0.1839,0.1843,0.1857,0.1863,0.1869,0,0,0,0,0,0,0.1493,0.1523,0.1521,0.1571,0.1595,0.1623,0.1648,0.1646,0.1675,0.1672,0.1681,0.1688,0.1734,0.1748,0.1726,0.1803,0.1785,0.179,0.1792,0.1798,0.1803,0.1798,0.1712,0,0,0,0,0,0.1501,0.1533,0.1558,0.16,0.1612,0.1628,0.1646,0.165,0.1676,0.1686,0.1704,0.1729,0.176,0.178,0.181,0.1862,0.1867,0.1884,0.1888,0.1892,0.1897,0.1923,0.193,0.1856,0.1856,0.1856,0,0,0.152,0.1541,0.156,0.1603,0.1622,0.1653,0.1636,0.1671,0.1695,0.1691,0.1734,0.1749,0.1777,0.1825,0.1847,0.1838,0.1919,0.1897,0.19,0.1902,0.1928,0.1935,0.1941,0.1858,0.1858,0.1857,0,0,0.157,0.1589,0.1626,0.1645,0.1673,0.1683,0.1692,0.172,0.1729,0.1773,0.177,0.1798,0.1852,0.1872,0.1889,0.1944,0.1941,0.1954,0.1979,0.2005,0.201,0.2016,0.2034,0.2041,0.1959,0.1959,0.1959,0,0.159,0.1637,0.1645,0.1679,0.1698,0.1696,0.1732,0.175,0.1787,0.18,0.179,0.1856,0.1875,0.1927,0.194,0.1955,0.1964,0.195,0.2009,0.2014,0.2019,0.2037,0.2044,0.196,0.196,0.196,0.196,0,0.1659,0.1692,0.1718,0.1753,0.1775,0.181,0.1823,0.1844,0.1846,0.1857,0.1901,0.1923,0.1957,0.197,0.1973,0.2022,0.2015,0.2007,0.1988,0.2028,0.2044,0.2051,0.1962,0.1961,0.1961,0.1961,0,0,0.1719,0.1757,0.1766,0.1781,0.1812,0.1837,0.1873,0.1905,0.1922,0.1948,0.1976,0.2021,0.2013,0.2033,0.2038,0.206,0.2101,0.2049,0.205,0.2057,0.2155,0.216,0.2167,0.2099,0.2101,0.2102,0.2152,0,0.1771,0.1832,0.184,0.1894,0.1924,0.1922,0.1952,0.1974,0.1985,0.2012,0.2024,0.2055,0.2044,0.2055,0.2077,0.2091,0.2121,0.2088,0.2125,0.2126,0.2117,0.2176,0.2182,0.2228,0.2158,0.216,0.216,0,0.184,0.1866,0.1923,0.1948,0.1961,0.1988,0.2017,0.2043,0.2068,0.2074,0.2095,0.2097,0.2132,0.2112,0.216,0.2138,0.2154,0.2163,0.2165,0.2168,0.2145,0.2179,0.2243,0.225,0.2171,0.217,0.2169,0,0.1876,0.1926,0.1966,0.1979,0.201,0.2028,0.2042,0.2065,0.2084,0.211,0.2121,0.2152,0.2168,0.2191,0.22,0.2185,0.2247,0.2228,0.2252,0.2252,0.2265,0.2264,0.2331,0.2277,0.2277,0.2277,0.2277,0,0.1932,0.1967,0.1982,0.2007,0.2045,0.2053,0.2091,0.2104,0.2124,0.2151,0.2152,0.2176,0.2188,0.2214,0.2222,0.226,0.2268,0.2273,0.2275,0.2272,0.2272,0.2282,0.2279,0.2279,0.2278,0.2278,0.2278,0,0.1978,0.199,0.2034,0.2059,0.2066,0.2093,0.2115,0.2138,0.2149,0.2182,0.2191,0.2208,0.2239,0.225,0.2289,0.2294,0.2337,0.2337,0.2328,0.2328,0.2351,0.2348,0.2426,0.2436,0.2377,0.2378,0.2378,0,0.2013,0.2039,0.2067,0.2085,0.2099,0.2127,0.2146,0.2155,0.2174,0.2203,0.2223,0.2254,0.2279,0.2329,0.2344,0.2373,0.2372,0.2398,0.2377,0.2373,0.2371,0.2368,0.237,0.2401,0.2402,0.2402,0.2403,0,0.2072,0.2076,0.2103,0.2132,0.2153,0.2176,0.2199,0.2213,0.2225,0.2247,0.2278,0.2298,0.2336,0.2366,0.2396,0.2409,0.2408,0.2409,0.2416,0.2413,0.2407,0.2409,0.2338,0.2407,0.2407,0.2406,0.2406,0.2406,0.2113,0.2136,0.2158,0.2187,0.2205,0.2225,0.2248,0.2261,0.2288,0.2319,0.2323,0.2356,0.2379,0.2418,0.2433,0.2459,0.2452,0.2462,0.2465,0.2467,0.2467,0.2404,0.2464,0.2464,0.2464,0.2464,0.2464,0,0.2171,0.2185,0.2212,0.2242,0.2265,0.2262,0.2286,0.2305,0.2334,0.2355,0.2379,0.2415,0.2444,0.2461,0.249,0.2507,0.2507,0.2514,0.2513,0.2515,0.2473,0.2463,0.2514,0.2514,0.2514,0.2514,0.2514,0.2514,0.2204,0.2241,0.2248,0.2294,0.2308,0.2341,0.2354,0.2373,0.2389,0.2429,0.2453,0.2464,0.2483,0.2513,0.2539,0.2543,0.2553,0.2561,0.2564,0.2524,0.2519,0.2514,0.2505,0.2563,0.2563,0.2605,0.2605,0.2605]},{"header":{"parameterUnit":"m.s-1","parameterCategory":1,"la1":30.2991,"la2":30.254,"lo1":-89.0895,"lo2":-89.0444,"dy":0.0017,"dx":0.0017,"nx":28,"ny":28,"refTime":"2026-02-16T03:00:00:Z","depth":0,"parameterNumber":3,"parameterNumberName":"V-component_of_WINDS"},"data":[0,0,0,0,0,0,0,0,0,0,0,0,0,0,0,0,0,0,0,0,0,0,0,0,0,0,0,0,0,0,0,0,0,0,0,0,0,0,0,0,0,0,0,0,0,0,0,0,0,0,0,0,0,0,0,0,0,0,0.9822,0.9822,0,0.982,0.982,0.982,0.9808,0.9808,0.9808,0.9807,0.9804,0.9804,0.9804,0,0,0,0,0,0,0,0,0,0,0,0,0,0.9811,0.9811,0.9822,0.9822,0.9822,0.982,0.982,0.982,0.9808,0.9808,0.9808,0.9807,0.9804,0.9804,0.9804,0,0,0,0,0,0,0,0,0,0,0,0,0,0.9813,0.9811,0.9822,0.9816,0.9815,0.982,0.982,0.982,0.9808,0.9808,0.9808,0.9807,0.9804,0.9804,0.9804,0.9814,0,0,0.9805,0.9805,0,0,0,0,0,0,0,0,0.9813,0.9813,0.9817,0.9816,0.9816,0.9814,0.9815,0.9818,0.9808,0.9811,0.9807,0.9807,0.9807,0.9807,0.9808,0.9814,0.9814,0.9805,0.9805,0.9805,0.9805,0,0,0,0,0,0,0,0.9813,0.9813,0.9821,0.9817,0.9816,0.9812,0.9811,0.9815,0.9811,0.9811,0.981,0.981,0.9807,0.9808,0.9808,0.9813,0.9805,0.9805,0.9805,0.9805,0.9822,0.9823,0,0,0,0,0,0,0.9814,0.9813,0.9821,0.9821,0.9813,0.9812,0.9812,0.9815,0.9811,0.981,0.981,0.9809,0.9807,0.9807,0.9807,0.9816,0.9805,0.9805,0.9806,0.9822,0.9822,0.9823,0,0,0,0,0,0,0.9814,0.9815,0.9821,0.9817,0.9817,0.9813,0.9816,0.9815,0.9816,0.9811,0.981,0.9812,0.9807,0.9807,0.9811,0.9816,0.9805,0.9806,0.9822,0.9822,0.9823,0.9834,0,0,0,0,0,0,0.9813,0.9815,0.982,0.9817,0.9818,0.9827,0.9816,0.9815,0.9816,0.9815,0.9812,0.9811,0.9807,0.9811,0.9812,0.9816,0.9806,0.9821,0.9822,0.9822,0.9834,0.9835,0.9837,0,0,0,0,0,0.9813,0.9824,0.982,0.9821,0.9824,0.9827,0.9827,0.9822,0.9817,0.9821,0.9817,0.9811,0.9815,0.9812,0.9812,0.9816,0.9821,0.9822,0.9822,0.9833,0.9835,0.9837,0,0,0,0,0,0,0.9828,0.9823,0.9819,0.983,0.9829,0.9825,0.983,0.9825,0.9825,0.9824,0.9817,0.9816,0.9821,0.9819,0.9816,0.9823,0.9817,0.9818,0.9825,0.9826,0.9828,0.9828,0.9806,0,0,0,0,0,0.9832,0.9836,0.9831,0.9841,0.984,0.9835,0.9837,0.9832,0.9831,0.983,0.9827,0.9825,0.9825,0.9826,0.9826,0.9833,0.983,0.9836,0.9837,0.9838,0.9839,0.9839,0.984,0.9825,0.9825,0.9825,0,0,0.9841,0.9839,0.9842,0.9844,0.9842,0.9845,0.9835,0.9839,0.984,0.9831,0.9834,0.9831,0.9828,0.9833,0.9835,0.9832,0.9842,0.9839,0.984,0.984,0.984,0.9841,0.9843,0.9826,0.9825,0.9825,0,0,0.9859,0.9859,0.9865,0.9863,0.9861,0.9857,0.9858,0.9854,0.9852,0.9855,0.9847,0.9847,0.9849,0.9846,0.9845,0.9856,0.985,0.9856,0.9864,0.9864,0.9865,0.9866,0.9868,0.9869,0.9857,0.9857,0.9857,0,0.987,0.9875,0.9869,0.9872,0.9871,0.9862,0.9867,0.9865,0.9863,0.9862,0.9858,0.9857,0.9855,0.9857,0.9859,0.9859,0.9859,0.9857,0.9866,0.9867,0.9868,0.9869,0.987,0.9858,0.9858,0.9858,0.9858,0,0.9887,0.989,0.9895,0.9892,0.9892,0.9897,0.9889,0.9889,0.9884,0.9879,0.9881,0.9877,0.9874,0.9875,0.987,0.9875,0.9873,0.9868,0.9861,0.987,0.9871,0.9872,0.9859,0.9859,0.9858,0.9858,0,0,0.9916,0.9908,0.991,0.9907,0.9902,0.9903,0.9905,0.9902,0.9901,0.9899,0.9899,0.9898,0.9892,0.9891,0.9885,0.9886,0.9891,0.988,0.9879,0.9881,0.9893,0.9897,0.9898,0.9887,0.9887,0.9887,0.9893,0,0.9931,0.9936,0.9928,0.9933,0.9934,0.9923,0.9924,0.992,0.9915,0.9913,0.9907,0.9906,0.99,0.9898,0.9898,0.9891,0.9894,0.9891,0.9885,0.9885,0.9886,0.9899,0.9903,0.9909,0.9894,0.9894,0.9894,0,0.9951,0.9948,0.9953,0.9944,0.9944,0.9946,0.9941,0.994,0.9934,0.9929,0.9926,0.9919,0.9917,0.9911,0.9907,0.9905,0.9902,0.9898,0.9898,0.9897,0.989,0.9897,0.9911,0.9911,0.9895,0.9895,0.9895,0,0.9968,0.9966,0.9968,0.9966,0.9957,0.9957,0.9953,0.9946,0.9944,0.9939,0.9937,0.9932,0.9929,0.9925,0.9915,0.9912,0.9912,0.9905,0.9907,0.9907,0.9908,0.9908,0.992,0.9907,0.9907,0.9907,0.9907,0,0.9985,0.9988,0.9975,0.9976,0.9978,0.9968,0.997,0.9964,0.9958,0.9956,0.9946,0.9944,0.9932,0.9928,0.9921,0.9918,0.9917,0.9912,0.991,0.9913,0.9913,0.991,0.9909,0.9907,0.9907,0.9907,0.9907,0,1.0006,0.9998,0.9998,0.9988,0.9986,0.9987,0.9978,0.9977,0.997,0.9968,0.9966,0.9955,0.995,0.994,0.9932,0.9926,0.9924,0.9921,0.9926,0.9925,0.9926,0.9926,0.9937,0.9937,0.9925,0.9925,0.9925,0,1.0017,1.0019,1.0008,1.0006,1.0002,1.0,0.9997,0.9986,0.9983,0.9974,0.9973,0.9967,0.9962,0.9953,0.9943,0.9936,0.9932,0.9936,0.9931,0.9932,0.993,0.9929,0.9928,0.9937,0.9937,0.9938,0.9938,0,1.0037,1.0032,1.0028,1.0022,1.0019,1.0014,1.0008,1.0007,0.9994,0.9991,0.9985,0.998,0.9971,0.9964,0.9954,0.9948,0.994,0.9939,0.9939,0.9942,0.9944,0.9941,0.9928,0.9939,0.9939,0.9939,0.9939,0.9939,1.0052,1.0051,1.0043,1.0038,1.0033,1.0027,1.0025,1.0017,1.0012,1.0003,0.9997,0.9991,0.9981,0.9967,0.9961,0.9955,0.9952,0.9952,0.9952,0.9951,0.9952,0.9945,0.9953,0.9953,0.9953,0.9953,0.9953,0,1.0069,1.0063,1.0059,1.005,1.0046,1.0038,1.003,1.0027,1.0022,1.0014,1.0008,0.9999,0.9991,0.998,0.997,0.9967,0.9963,0.9965,0.9965,0.9963,0.9956,0.9957,0.9969,0.9969,0.9969,0.9969,0.9969,0.9969,1.0078,1.0076,1.0069,1.0063,1.0057,1.0051,1.0047,1.004,1.0033,1.0024,1.0017,1.001,0.9999,0.9989,0.998,0.9977,0.9973,0.9976,0.9972,0.9965,0.9964,0.9963,0.9963,0.9976,0.9976,0.9979,0.9979,0.9979]}]]